Location: Praha
(50.0830°N, 14.4670°E)
Time: 18:24:54
(UTC+02:00)

ISS - Pass Details

Date: 04 September 2024
Orbit: 414 x 424 km, 51.6° (Epoch: 16 September)

Event Time Altitude Azimuth Distance (km) Brightness Sun altitude
Exits shadow 03:48:07 55° 69° (ENE) 519 -3.1 -22.4°
Drops below altitude 10° 03:50:57 10° 94° (E) 1,522 -0.4 -22.1°
Sets 03:53:04 0° 96° (E) 2,388 0.7 -21.8°
